Regional Weather Roundup
Issued by NWS Grand Forks, ND

Home | Current Version | Previous Version | Graphics & Text | Print | Product List | Glossary On
Versions: 1 2 3 4 5 6 7 8 9 10 11 12 13 14 15 16 17 18 19 20 21 22 23 24 25 26 27 28 29 30 31 32 33 34 35 36 37 38 39 40 41 42 43 44 45 46 47 48 49 50
157
ASUS43 KFGF 252031
RWRFGF
PRAIRIE TO PINES  WEATHER ROUNDUP
NATIONAL WEATHER SERVICE EASTERN NORTH DAKOTA/GRAND FORKS ND
300 PM CDT TUE JUL 25 2017

 **SATELLITE DATA USED TO AUGMENT SKY COVER AT AUTOMATED STATIONS**
 *****  WEATHER ACROSS EASTERN NORTH DAKOTA  *****

CITY           SKY/WX    TMP DP  RH WIND       PRES   REMARKS
GRAND FORKS    FAIR      89  61  38 W8        29.85R
GRAND FRKS AFB FAIR      86  59  39 NW10      29.87R
DEVILS LAKE    FAIR      78  55  44 W16       29.92S
WAHPETON ARPT  FAIR      79  68  69 S10       29.91R
$$

 ***** WEATHER ACROSS CENTRAL AND WESTERN NORTH DAKOTA  *****

CITY           SKY/WX    TMP DP  RH WIND       PRES   REMARKS
BISMARCK       FAIR      86  48  26 MISG      29.98R
MINOT          FAIR      86  48  26 NW20G29   29.95S
JAMESTOWN      FAIR      84  60  44 N7        29.93R
MINOT AFB      FAIR      83  49  30 NW20G25   29.93S
GARRISON         N/A     82  49  31 NW10G26   29.98R
WILLISTON      FAIR      86  44  23 NW13G24   30.00F
DICKINSON      FAIR      84  45  25 N9        30.02S
HETTINGER      PTSUNNY   84  45  25 NE12G18   30.05S
$$

 *****  OTHER AIRPORT OBSERVATIONS IN OUR AREA  *****

CITY           SKY/WX    TMP DP  RH WIND       PRES   REMARKS
WALHALLA       NOT AVBL
GRAFTON AIRPOR FAIR      84  55  37 W14       29.87S
VALLEY CITY AR FAIR      81  59  47 NE5       29.95R
CANDO          NOT AVBL
CAVALIER APRT  FAIR      79  59  50 NW13      29.85S
GWINNER        PTCLDY    79  72  78 SE3       29.90F
SHEYENNE NWR     N/A     80  71  72 E7        29.95S
ROLLA            N/A     75  57  53 NW18G26   29.93R
 ***** THE ABOVE OBSERVATIONS ARE NON NWS ARE NOT QUALITY
       CONTROLLED AND MAY MIS-REPORT RAIN FOR SNOW...
$$

  *****  WEATHER ACROSS NORTHERN MINNESOTA  *****

CITY           SKY/WX    TMP DP  RH WIND       PRES   REMARKS
FLAG ISLAND    FAIR      79  66  65 S7        29.81F HAZE
WARROAD        FAIR      81  72  74 SW7       29.83S
ROSEAU         FAIR      82  70  65 W8G16     29.84S
HALLOCK        FAIR      82  55  39 W15       29.84S
THF RVR FALLS  FAIR      79  70  73 S8        29.89
BAUDETTE       NOT AVBL
WASKISH        CLOUDY    77  68  73 S7        29.88F
CROOKSTON      FAIR      81  70  69 SW6       29.88R
STEPHEN NDAWN    N/A     82  63  51 W6          N/A
GREENBUSH NDAW   N/A     81  66  61 W9          N/A
$$
  *****  WEATHER ACROSS CENTRAL AND WEST MINNESOTA  *****

CITY           SKY/WX    TMP DP  RH WIND       PRES   REMARKS
FOSSTON        CLOUDY    77  66  69 SW7       29.91R
BEMIDJI        CLOUDY    74  67  78 S10       29.91F
PARK RAPIDS    CLOUDY    73  67  81 S8        29.95R
ELBOW LAKE     FAIR      77  70  79 S10       29.91F
WADENA         FAIR      75  68  78 S10       29.91F
DETROIT LAKES  FAIR      73  68  83 S8        29.93S
MOORHEAD       FAIR      75  68  78 CALM      29.90S
FERGUS FALLS   FAIR      79  68  69 SE10      29.89F
MORRIS MN      FAIR      84  70  61 CALM      29.92R
STAPLES        CLOUDY    73  66  78 S9        29.95R
$$
  *****  WEATHER ELSEWHERE ACROSS MINNESOTA  *****

CITY           SKY/WX    TMP DP  RH WIND       PRES   REMARKS
DULUTH         CLOUDY    70  64  81 SE14      29.98S
INTRNTL FALLS  CLOUDY    74  65  73 S8        29.89S
ELY            CLOUDY    73  63  68 S8        29.96S
CLOQUET        CLOUDY    72  63  73 S3        29.98S
WHEATON        FAIR      79  70  73 S5        29.93S
BRAINERD       CLOUDY    73  67  81 S7        29.94F
HIBBING        CLOUDY    71  66  84 SW8       29.96F
ALEXANDRIA     CLOUDY    78  69  73 S6        29.97R
SAINT CLOUD    CLOUDY    78  70  76 S9        29.94F
MINNEAPOLIS    PTSUNNY   81  67  62 S13G23    29.96F
$$

  *****  WEATHER ACROSS SOUTH DAKOTA  *****

CITY           SKY/WX    TMP DP  RH WIND       PRES   REMARKS
SIOUX FALLS    PTSUNNY   95  71  45 S20G25    29.88F HX 102
BROOKINGS      FAIR      92  74  55 S15       29.90S HX 101
WATERTOWN      FAIR      85  71  63 SE9       29.89F HX  90
HURON          PTSUNNY   86  72  62 N13       29.85S THUNDER HX  92
SISSETON         N/A     80  71  74 SE9       29.90S
ABERDEEN       FAIR      83  72  69 E9        29.90F
MITCHELL       FAIR     101  68  34 SW16G24   29.82F HX 106
PIERRE         FAIR      92  66  42 NE15      29.88R HX  94
MOBRIDGE       FAIR      86  71  60 N12       29.92R HX  91
RAPID CITY     FAIR      83  57  41 NE14      30.00F
$$

  *****  SOME WEATHER IN NEARBY STATES *****

CITY           SKY/WX    TMP DP  RH WIND       PRES   REMARKS
GLASGOW MT     FAIR      79  43  27 MISG      30.06F
GREAT FALLS MT FAIR      76  38  25 E9        30.10F
CHEYENNE WY    PTSUNNY   84  46  26 N12G22    30.15F
SCOTTSBLUFF NE FAIR      92  56  29 W8        29.98S HX  90
OMAHA NE       FAIR      94  74  52 S13       29.99F HX 104
DES MOINES IA  FAIR      94  69  44 S14G24    30.03F HX  99
DAVENPORT IA   FAIR      81  67  62 SE8       30.15F
CHICAGO IL     PTSUNNY   81  54  39 S8        30.18S
EAU CLAIRE WI  FAIR      75  64  68 S14       30.03F
LA CROSSE WI   FAIR      78  67  68 S15       30.05F
$$

  *****  SOME NATIONAL WEATHER *****

CITY           SKY/WX    TMP DP  RH WIND       PRES   REMARKS
LA GUARDIA NY  CLOUDY    69  61  75 NE9       30.13R
RALEIGH NC     PTSUNNY   91  65  41 NE3       30.07S HX  93
ATLANTA GA     PTSUNNY   88  73  61 W7        30.09S HX  95
NEW ORLEANS LA PTSUNNY   88  75  65 NE10      30.14F HX  97
OKLAHOMA CITY  FAIR      96  66  37 SE10G22   30.03F HX  99
ALBUQUERQUE NM FAIR      86  55  34 S3        30.18F
SALT LAKE CITY PTSUNNY   82  57  42 E5        30.09F
LOS ANGELES CA PTSUNNY   76  65  68 W12       29.99S
BOISE ID       FAIR      90  47  22 NW6       29.99F
SEATTLE WA     FAIR      78  52  40 W9        30.04S
$$

*** WEATHER ACROSS MANITOBA...SASKATCHEWAN AND ONTARIO ***
                ***ONTARIO***

CITY           SKY/WX    TMP DP  RH WIND       PRES   REMARKS
GERALDTON      PTSUNNY   75  54  46 S23G36    29.98F
THUNDER BAY    PTSUNNY   75  61  60 S15G25    29.99F
SIOUX LOOKOUT  PTSUNNY   77  64  65 SW15G23   29.82R
TORONTO        PTSUNNY   72  55  56 SE10      30.20S
BIG TROUT LK   MOSUNNY   75  64  69 S12G18    29.62F
PICKLE LAKE    PTSUNNY   77  63  61 S20G26    29.77S
DRYDEN         PTSUNNY   79  66  65 S25G31    29.79F
KENORA         CLOUDY    72  68  88 SW15G25   29.83R
$$
                *** MANITOBA***

CITY           SKY/WX    TMP DP  RH WIND       PRES   REMARKS
BRANDON        PTSUNNY   70  57  64 W18G30    29.89R
DAUPHIN        PTSUNNY   75  59  57 W21G35    29.79R
ISLAND LAKE    PTSUNNY   66  59  77 NW9G17    29.60
PILOT MOUND      N/A     72  57  60 W13G21      N/A
THE PAS        PTSUNNY   73  52  46 NW14G20   29.69R
THOMPSON       PTSUNNY   75  54  46 NW15      29.57R
WINNIPEG       PTSUNNY   75  59  57 W20       29.82S
LYNN LAKE      MOSUNNY   73  57  56 NW16G22   29.72R
CHURCHILL      CLOUDY    52  50  93 NE12      29.62S
GILLAM         MOSUNNY   73  66  78 W12G17    29.53R
$$
                ***SASKATCHEWAN***

CITY           SKY/WX    TMP DP  RH WIND       PRES   REMARKS
ESTEVAN        MOSUNNY   77  54  44 NW23      29.98R
KINDERSLEY     MOSUNNY   73  45  35 NW12G17   30.05S
LLOYDMINSTER   PTSUNNY   70  54  56 W10       30.04S
PRINCE ALBERT  PTSUNNY   73  59  60 NW14G26   29.92R
REGINA         PTSUNNY   77  52  41 NW26G33   29.97R
YORKTON        CLOUDY    66  61  82 W16       29.89R
N. BATTLEFORD  MOSUNNY   70  57  64 NW13G21   30.03R
LA RONGE       PTSUNNY   75  55  50 N14G23    29.87R
SASKATOON      PTSUNNY   75  57  53 NW18G24   29.98R
SWIFT CURRENT  SUNNY     73  46  38 NW9G22    30.06S
$$
NOTE: THESE ARE AUTOMATED STATIONS WITH LIMITED QUALITY CONTROL
      "FAIR" INDICATES FEW OR NO CLOUDS BELOW 12,000 FEET WITH NO
      SIGNIFICANT WEATHER AND/OR OBSTRUCTIONS TO VISIBILITY.
      SKY/WX - SKY CONDITION AND SIGNIFICANT WEATHER.
      TMP - AIR TEMPERATURE.    DP   - DEWPOINT TEMPERATURE.
      RH  - RELATIVE HUMIDITY.  PRES - PRESSURE.
      HX  - HEAT INDEX.         WCI  - WIND CHILL INDEX.
$




USA.gov is the U.S. government's official web portal to all federal, state and local government web resources and services.